Location: Emblem
(62.4273°N, 6.4710°E)
Time: 19:11:00
(UTC+02:00)

A-11 Canister half - Pass Details

Date: 27 May 2024
Orbit: 1515 x 1684 km, 47.2° (Epoch: 18 May)

Event Time Altitude Azimuth Distance (km) Brightness Sun altitude
Exits shadow 01:24:43 - 169° (S) 4,097 10.6 -6.2°
Reaches altitude 10° 01:26:52 10° 158° (SSE) 3,764 10.5 -6.2°
Maximum altitude 01:30:38 13° 134° (SE) 3,502 10.5 -6.2°
Drops below altitude 10° 01:34:21 10° 110° (ESE) 3,722 10.8 -6.2°
Sets 01:39:38 0° 86° (E) 4,683 11.6 -6.2°
